Showing default

NUSAT-3, 42760

Orbit data source: Space-Track

NUSAT-3, 42760 is a payload satellite owned by URUGUS S.A. (AR) in LEO that was launched on Thu, 15 Jun 2017 UTC via a CHANG ZHENG 4B launch vehicle from the Jiuquan Satellite Launch Center, China (JSC). Payloads include a variety of satellites, spacecraft, and rockets equipped with specific instruments for various scientific and technological missions. These include communications satellites like Starlink; space stations such as the ISS; scientific satellites like the Hubble; Earth observation satellites from companies like Planet Labs, Umbra, and HawkEye 360; GPS; miniature CubeSats for education and research; and military/defense satellites.

Loading next visibility...
NUSAT-3 details
Identifier
42760, 2017-034C
Orbit
LEO
Last TLE update4 hours ago
Origin
Flag of ARURUGUS S.A. (AR / ARGN)
ManufacturerURUGUS S.A.
MissionOperational Commercial Imaging
Bus & MotorALEPH, Unknown motor
Mass37 kg wet, 37 kg dry
Launch date (UTC)
2017-06-15 (7 years ago)
Launch vehicle
CHANG ZHENG 4B
Launch site
Jiuquan Satellite Launch Center, China (JSC)
Object type
Payload
Rocket body
Debris
Shape & HBRBox, 0.75 m
Radar Cross Section0.380 m², Medium (>0.1 m² and < 1m²)

Expand to show TLE details & history

TLE from 4 hours ago
0 NUSAT-3
1 42760U 17034C   24337.15590379  .00058770  00000-0  11664-2 0  9999
2 42760  43.0057 329.2455 0016456  81.0527 279.2193 15.46037002413442
Epoch: 2024-12-02T03:44Z
Definitive object data (Epoch: 2024-12-02T03:44:30.087Z)
Latitude-0.00006°
Longitude-158.36374°
Altitude426.331 km
Speed7.658 km/s
True Right ascension21h 56m 58s
True Declination0° 00' 00"
Sunlit
Object was in daylight at TLE epoch
Visualization TLE readout
Latitude-39.24099°
Longitude140.02329°
Altitude449.656 km
Speed7.637 km/s
Apparent Right ascension17h 51m 22s
Apparent Declination-39° 23' 05"
Sunlit
Object is in daylight
Visualization observer readout
Local Sidereal Time05:52:16
Azimuth18.236° NNE
Elevation-89.441°
Doppler factor1
Orbital elements
Apogee altitude441.496 km
Perigee altitude419.089 km
Semi-major axis6,808.43 km
Eccentricity0.0016456
Inclination43.0057°
RAAN329.2455°
Arg. of periapsis81.0527°
True anomaly279.0331°
Mean anomaly279.2193°
Eccentric anomaly279.12621°
Mean motion3.86343 °/min
BSTAR0.0011664
Orbital period93.18 mins
Loading maneuver chart data...
Loading historical data...
Loading historical data...
Loading historical data...
Loading historical data...
Loading historical data...
Loading historical data...
Loading historical data...

NUSAT-3 Visibility forecast

Observer location: undefined°, undefined

Span
Click to sort rows by Start time (UTC) header in descending order
Start Az.
Max El. time (UTC)
Max El. Az.
Max El.
End time (UTC)
End Az.
5 mins2024-12-02 08:52:05.657Z273.565° WNW2024-12-02 08:55:05.657Z194.548° SSW29.656°2024-12-02 08:57:05.657Z147.33° SSE
5 mins2024-12-03 03:14:05.657Z221.19° SW2024-12-03 03:16:05.657Z145.786° SSE37.014°2024-12-03 03:19:05.657Z78.997° E
4 mins2024-12-03 04:52:05.657Z283.696° WNW2024-12-03 04:54:05.657Z23.366° NE37.331°2024-12-03 04:56:05.657Z66.298° ENE
4 mins2024-12-03 06:30:05.657Z301.964° NW2024-12-03 06:32:05.657Z44.579° NE37.012°2024-12-03 06:34:05.657Z84.631° E
|